| time (UTC) | temp C | wind direction | speed KPH | gust KPH | rain 1hr cm | rain 24hr cm | rain mn cm | humidity % | barometer mb |
| 20260504141122 | 16 | 338 | 0.0 | 0.0 | 0.00 | 0.00 | 0.00 | 67 | 1010.5 |
| 20260504140122 | 15 | 342 | 1.6 | 4.8 | 0.00 | 0.00 | 0.00 | 69 | 1010.4 |
| 20260504130143 | 13 | 1 | 1.6 | 8.0 | 0.00 | 0.00 | 0.00 | 75 | 1010.0 |
| 20260504120122 | 13 | 345 | 3.2 | 6.4 | 0.00 | 0.00 | 0.00 | 70 | 1010.2 |
| 20260504110122 | 13 | 353 | 4.8 | 8.0 | 0.00 | 0.00 | 0.00 | 69 | 1010.0 |
| 20260504100122 | 13 | 344 | 3.2 | 6.4 | 0.00 | 0.00 | 0.00 | 71 | 1009.9 |
| 20260504090122 | 14 | 350 | 3.2 | 6.4 | 0.00 | 0.00 | 0.00 | 69 | 1009.8 |
| 20260504081122 | 15 | 344 | 4.8 | 9.7 | 0.00 | 0.00 | 0.00 | 63 | 1009.5 |
| 20260504080122 | 15 | 354 | 3.2 | 6.4 | 0.00 | 0.00 | 0.00 | 63 | 1009.5 |
| 20260504070122 | 16 | 345 | 3.2 | 4.8 | 0.00 | 0.00 | 0.00 | 62 | 1009.4 |
| 20260504060122 | 16 | 342 | 3.2 | 8.0 | 0.00 | 0.00 | 0.00 | 60 | 1009.4 |
| 20260504050122 | 18 | 340 | 3.2 | 8.0 | 0.00 | 0.00 | 0.00 | 54 | 1009.2 |
| 20260504045143 | 18 | 341 | 4.8 | 8.0 | 0.00 | 0.00 | 0.00 | 53 | 1009.3 |
| 20260504044122 | 18 | 338 | 0.0 | 0.0 | 0.00 | 0.00 | 0.00 | 51 | 1009.2 |
| 20260504043122 | 18 | 349 | 0.0 | 4.8 | 0.00 | 0.00 | 0.00 | 49 | 1009.2 |
| 20260504042122 | 19 | 345 | 0.0 | 4.8 | 0.00 | 0.00 | 0.00 | 48 | 1009.3 |
| 20260504041122 | 19 | 360 | 0.0 | 0.0 | 0.00 | 0.00 | 0.00 | 47 | 1009.3 |
| 20260504040122 | 20 | 90 | 0.0 | 0.0 | 0.00 | 0.00 | 0.00 | 45 | 1009.2 |
| 20260504035122 | 21 | 113 | 0.0 | 0.0 | 0.00 | 0.00 | 0.00 | 42 | 1009.2 |
| 20260504034122 | 21 | 23 | 0.0 | 0.0 | 0.00 | 0.00 | 0.00 | 40 | 1009.3 |
| 20260504033122 | 22 | 23 | 0.0 | 0.0 | 0.00 | 0.00 | 0.00 | 38 | 1009.3 |
| 20260504032122 | 22 | 113 | 0.0 | 0.0 | 0.00 | 0.00 | 0.00 | 36 | 1009.3 |
| 20260504031143 | 23 | 307 | 0.0 | 4.8 | 0.00 | 0.00 | 0.00 | 33 | 1009.4 |
| 20260504030122 | 23 | 16 | 0.0 | 4.8 | 0.00 | 0.00 | 0.00 | 31 | 1009.4 |
| 20260504025143 | 24 | 306 | 3.2 | 9.7 | 0.00 | 0.00 | 0.00 | 30 | 1009.5 |
| 20260504024143 | 25 | 315 | 3.2 | 9.7 | 0.00 | 0.00 | 0.00 | 28 | 1009.5 |
| 20260504023122 | 26 | 285 | 4.8 | 14.5 | 0.00 | 0.00 | 0.00 | 27 | 1009.5 |
| 20260504022143 | 27 | 270 | 3.2 | 20.9 | 0.00 | 0.00 | 0.00 | 26 | 1009.5 |
| 20260504021144 | 27 | 296 | 4.8 | 12.9 | 0.00 | 0.00 | 0.00 | 26 | 1009.5 |
| 20260504020122 | 27 | 288 | 4.8 | 14.5 | 0.00 | 0.00 | 0.00 | 27 | 1009.7 |
| 20260504015122 | 27 | 302 | 4.8 | 12.9 | 0.00 | 0.00 | 0.00 | 27 | 1009.9 |
| 20260504014122 | 27 | 275 | 4.8 | 11.3 | 0.00 | 0.00 | 0.00 | 26 | 1010.0 |
| 20260504013143 | 27 | 248 | 4.8 | 17.7 | 0.00 | 0.00 | 0.00 | 26 | 1010.0 |
| 20260504012122 | 27 | 312 | 4.8 | 12.9 | 0.00 | 0.00 | 0.00 | 27 | 1010.0 |
| 20260504011122 | 28 | 348 | 4.8 | 11.3 | 0.00 | 0.00 | 0.00 | 27 | 1010.2 |
| 20260504010143 | 28 | 284 | 6.4 | 20.9 | 0.00 | 0.00 | 0.00 | 27 | 1010.4 |
| 20260504005123 | 28 | 236 | 6.4 | 16.1 | 0.00 | 0.00 | 0.00 | 28 | 1010.5 |
| 20260504004122 | 27 | 246 | 6.4 | 16.1 | 0.00 | 0.00 | 0.00 | 28 | 1010.7 |
| 20260504003122 | 28 | 235 | 6.4 | 24.1 | 0.00 | 0.00 | 0.00 | 27 | 1010.7 |
| 20260504002122 | 28 | 230 | 4.8 | 12.9 | 0.00 | 0.00 | 0.00 | 27 | 1010.8 |
| 20260504001143 | 28 | 274 | 6.4 | 14.5 | 0.00 | 0.00 | 0.00 | 27 | 1011.0 |
| 20260504000122 | 28 | 267 | 6.4 | 19.3 | 0.00 | 0.00 | 0.00 | 27 | 1011.0 |
| 20260503235122 | 27 | 212 | 6.4 | 20.9 | 0.00 | 0.00 | 0.00 | 29 | 1011.2 |
| 20260503234122 | 27 | 220 | 8.0 | 20.9 | 0.00 | 0.00 | 0.00 | 28 | 1011.3 |
| 20260503233122 | 28 | 239 | 6.4 | 20.9 | 0.00 | 0.00 | 0.00 | 28 | 1011.3 |
| 20260503232122 | 28 | 278 | 6.4 | 19.3 | 0.00 | 0.00 | 0.00 | 28 | 1011.5 |
| 20260503231122 | 27 | 227 | 9.7 | 27.4 | 0.00 | 0.00 | 0.00 | 29 | 1011.7 |
| 20260503230143 | 28 | 238 | 6.4 | 22.5 | 0.00 | 0.00 | 0.00 | 30 | 1011.8 |
| 20260503225143 | 28 | 261 | 4.8 | 14.5 | 0.00 | 0.00 | 0.00 | 30 | 1012.0 |
| 20260503224122 | 26 | 250 | 6.4 | 20.9 | 0.00 | 0.00 | 0.00 | 31 | 1012.2 |
| 20260503223122 | 27 | 260 | 6.4 | 16.1 | 0.00 | 0.00 | 0.00 | 30 | 1012.2 |
| 20260503222123 | 28 | 227 | 6.4 | 17.7 | 0.00 | 0.00 | 0.00 | 28 | 1012.3 |
| 20260503221122 | 26 | 188 | 6.4 | 14.5 | 0.00 | 0.00 | 0.00 | 33 | 1012.5 |
| 20260503220143 | 26 | 176 | 8.0 | 20.9 | 0.00 | 0.00 | 0.00 | 36 | 1012.5 |
| 20260503215122 | 25 | 158 | 8.0 | 16.1 | 0.00 | 0.00 | 0.00 | 42 | 1012.8 |
| 20260503214122 | 25 | 194 | 8.0 | 17.7 | 0.00 | 0.00 | 0.00 | 39 | 1013.0 |
| 20260503213122 | 25 | 220 | 8.0 | 20.9 | 0.00 | 0.00 | 0.00 | 33 | 1013.0 |
| 20260503212122 | 25 | 221 | 8.0 | 25.7 | 0.00 | 0.00 | 0.00 | 36 | 1013.0 |
| 20260503211122 | 25 | 209 | 8.0 | 20.9 | 0.00 | 0.00 | 0.00 | 37 | 1013.2 |
| 20260503210122 | 24 | 195 | 8.0 | 17.7 | 0.00 | 0.00 | 0.00 | 45 | 1013.4 |
| 20260503205122 | 23 | 171 | 8.0 | 19.3 | 0.00 | 0.00 | 0.00 | 47 | 1013.5 |
| 20260503204122 | 23 | 183 | 8.0 | 16.1 | 0.00 | 0.00 | 0.00 | 47 | 1013.5 |
| 20260503203143 | 23 | 191 | 8.0 | 20.9 | 0.00 | 0.00 | 0.00 | 47 | 1013.5 |
| 20260503202122 | 24 | 209 | 8.0 | 20.9 | 0.00 | 0.00 | 0.00 | 38 | 1013.8 |
| 20260503201122 | 23 | 194 | 9.7 | 27.4 | 0.00 | 0.00 | 0.00 | 45 | 1014.0 |
| 20260503200122 | 23 | 192 | 8.0 | 19.3 | 0.00 | 0.00 | 0.00 | 45 | 1014.0 |
| 20260503195122 | 25 | 205 | 8.0 | 20.9 | 0.00 | 0.00 | 0.00 | 39 | 1014.2 |
| 20260503194122 | 23 | 172 | 8.0 | 20.9 | 0.00 | 0.00 | 0.00 | 46 | 1014.4 |
| 20260503193122 | 23 | 177 | 8.0 | 20.9 | 0.00 | 0.00 | 0.00 | 46 | 1014.4 |
| 20260503192144 | 22 | 175 | 8.0 | 16.1 | 0.00 | 0.00 | 0.00 | 49 | 1014.4 |
| 20260503191144 | 23 | 202 | 6.4 | 14.5 | 0.00 | 0.00 | 0.00 | 46 | 1014.5 |
| 20260503190144 | 23 | 221 | 6.4 | 19.3 | 0.00 | 0.00 | 0.00 | 43 | 1014.7 |
| 20260503185124 | 23 | 228 | 9.7 | 20.9 | 0.00 | 0.00 | 0.00 | 40 | 1014.8 |
| 20260503184123 | 23 | 231 | 8.0 | 20.9 | 0.00 | 0.00 | 0.00 | 44 | 1014.9 |
| 20260503183123 | 23 | 232 | 8.0 | 17.7 | 0.00 | 0.00 | 0.00 | 47 | 1014.9 |
| 20260503182123 | 22 | 226 | 8.0 | 19.3 | 0.00 | 0.00 | 0.00 | 49 | 1014.9 |
| 20260503181123 | 21 | 173 | 6.4 | 16.1 | 0.00 | 0.00 | 0.00 | 55 | 1014.9 |
| 20260503180124 | 20 | 177 | 6.4 | 14.5 | 0.00 | 0.00 | 0.00 | 60 | 1015.0 |
| 20260503175122 | 20 | 194 | 6.4 | 12.9 | 0.00 | 0.00 | 0.00 | 61 | 1015.0 |
| 20260503174122 | 20 | 207 | 6.4 | 12.9 | 0.00 | 0.00 | 0.00 | 60 | 1015.0 |
| 20260503173143 | 19 | 208 | 4.8 | 12.9 | 0.00 | 0.00 | 0.00 | 63 | 1015.0 |
| 20260503172122 | 18 | 216 | 6.4 | 12.9 | 0.00 | 0.00 | 0.00 | 63 | 1015.0 |
| 20260503171122 | 20 | 182 | 4.8 | 12.9 | 0.00 | 0.00 | 0.00 | 59 | 1015.0 |
| 20260503170122 | 19 | 153 | 6.4 | 12.9 | 0.00 | 0.00 | 0.00 | 59 | 1015.2 |
| 20260503160124 | 18 | 174 | 4.8 | 9.7 | 0.00 | 0.00 | 0.00 | 62 | 1015.5 |
| 20260503150124 | 17 | 197 | 0.0 | 4.8 | 0.00 | 0.00 | 0.00 | 66 | 1015.5 |